Hourly Data Report for July 01, 2021

OTTAWA INTL A
ONTARIO
Current Station Operator: NAVCAN

45°19'00.000" N
75°40'00.000" W
114.90 m
6106001
71628
YOW

Download Data

Hourly Data (July 2021)
Hourly Data Report for July 1, 2021
TIME
LST
Temp Definition
°C
Dew Point Definition
°C
Rel Hum Definition
%
Precip. Amount Definition
mm

Wind Dir Definition
10's deg

Wind Spd Definition
km/h
Visibility Definition
km
Stn Press Definition
kPa
Hmdx Definition


Wind Chill Definition


Weather Definition


00:00 17.3 15.2 87   30 9 24.1 99.88     LegendNANA
01:00 16.1 15.0 93   29 5 24.1 99.91     Mostly Cloudy
02:00 16.2 14.8 91   31 7 24.1 99.91     LegendNANA
03:00 16.4 14.4 88   35 7 24.1 99.89     LegendNANA
04:00 15.8 14.0 89   2 4 24.1 99.85     Mainly Clear
05:00 14.6 14.0 96   28 4 24.1 99.88     LegendNANA
06:00 17.0 14.6 85   36 11 24.1 99.89     LegendNANA
07:00 17.9 14.3 79   35 12 24.1 99.94     Mostly Cloudy
08:00 19.3 14.5 73   3 13 24.1 99.95     LegendNANA
09:00 20.1 12.7 62   2 16 24.1 99.94     LegendNANA
10:00 19.2 14.6 74   6 8 24.1 99.94     Rain Showers
11:00 20.3 14.8 70   2 10 24.1 99.93     LegendNANA
12:00 22.4 13.0 55   9 7 24.1 99.90 25   LegendNANA
13:00 22.9 12.8 52   9 13 24.1 99.86 26   Mostly Cloudy
14:00 23.9 13.4 51   4 9 24.1 99.81 27   LegendNANA
15:00 25.3 12.8 45   3 14 24.1 99.77 28   LegendNANA
16:00 23.7 12.0 47   3 13 24.1 99.73 26   Mostly Cloudy
17:00 23.7 11.5 46   4 12 24.1 99.72 26   LegendNANA
18:00 22.7 12.2 51   4 11 24.1 99.72 25   LegendNANA
19:00 22.2 13.7 58   1 12 24.1 99.74 25   Mostly Cloudy
20:00 21.4 13.2 59   2 14 24.1 99.72     LegendNANA
21:00 21.1 13.6 62   1 14 24.1 99.77     LegendNANA
22:00 20.3 13.5 65   2 14 24.1 99.74     Mostly Cloudy
23:00 19.6 13.8 69   3 13 24.1 99.70     LegendNANA

Notes on Data Quality.

Legend

  • E = Estimated
  • M = Missing
  • NA = Not Available*
  • [empty] = Indicates an unobserved value
Date modified: